sat.trackr.live / text

‹ back to catalog

STARLINK-11594 [DTC]

NORAD 64320 · 2025-124D

PAYLOAD ACTIVE UNKNOWN

§ Identity

Operator
Country
US
Launch date
2025-06-10
Launch site
AFETR
Launch vehicle
Mass (kg)
RCS (m²)

Purposes: comms

External: N2YO · Heavens-Above · Gunter

§ Orbital elements

Epoch: 2026-09-20T16:00:01.999584Z

Period
91.67 min
Inclination
43.0002°
Eccentricity
0.0001648
Mean motion
15.70890298 rev/d
Perigee alt
355.2 km
Apogee alt
357.5 km
Semi-major
6,734.5 km
B*
-9.3820e-4
RAAN
294.3255°
Arg perigee
276.6915°
Mean anomaly
137.2482°
Rev number
600

§ Raw data

STARLINK-11594 [DTC]1 64320U 25124D   26263.66668981 -.00119376  00000+0 -93820-3 0  99912 64320  43.0002 294.3255 0001648 276.6915 137.2482 15.70890298  6003

JSON: /api/v1/satellites/64320 · /tle

For live sub-satellite position, see the globe view (requires WebGL).

§ Visibility from observer

Set your observer location to see the next 7 days of passes ≥ 10°. The values pass through the URL so the page stays shareable.

No JS? Fill the form by hand. The geolocation button needs JavaScript.